[[{"header":{"parameterUnit":"m.s-1","parameterCategory":1,"la1":30.2991,"la2":30.254,"lo1":-89.0895,"lo2":-89.0444,"dx":0.0017,"dy":0.0017,"nx":28,"ny":28,"refTime":"2022-12-12T03:00:00:Z","depth":0,"parameterNumber":2,"parameterNumberName":"U-component_of_WINDS"},"data":[0,0,0,0,0,0,0,0,0,0,0,0,0,0,0,0,0,0,0,0,0,0,0,0,0,0,0,0,0,0,0,0,0,0,0,0,0,0,0,0,0,0,0,0,0,0,0,0,0,0,0,0,0,0,0,0,0,0,-0.0554,-0.0554,0,-0.0522,-0.0522,-0.0522,-0.0497,-0.0497,-0.0497,-0.0496,-0.0466,-0.0465,-0.0464,0,0,0,0,0,0,0,0,0,0,0,0,0,-0.0595,-0.0594,-0.0554,-0.0554,-0.0553,-0.0522,-0.0522,-0.0521,-0.0497,-0.0497,-0.0497,-0.0496,-0.0466,-0.0465,-0.0464,0,0,0,0,0,0,0,0,0,0,0,0,0,-0.0572,-0.0594,-0.0554,-0.0537,-0.0536,-0.0522,-0.0522,-0.0521,-0.0497,-0.0497,-0.0497,-0.0496,-0.0466,-0.0465,-0.0464,-0.0465,0,0,-0.0461,-0.0461,0,0,0,0,0,0,0,0,-0.0573,-0.057,-0.054,-0.0539,-0.0536,-0.0513,-0.0525,-0.0503,-0.0497,-0.0512,-0.0496,-0.0496,-0.0482,-0.048,-0.0474,-0.0464,-0.0463,-0.0461,-0.0461,-0.046,-0.046,0,0,0,0,0,0,0,-0.0575,-0.0571,-0.0542,-0.054,-0.0538,-0.0532,-0.0528,-0.0521,-0.0499,-0.0511,-0.0509,-0.0505,-0.0481,-0.0475,-0.0473,-0.0462,-0.0461,-0.046,-0.046,-0.046,-0.0451,-0.0452,0,0,0,0,0,0,-0.0579,-0.0573,-0.0543,-0.0541,-0.0554,-0.0531,-0.0527,-0.0521,-0.0499,-0.0496,-0.0506,-0.0504,-0.0477,-0.0475,-0.0472,-0.0473,-0.046,-0.0459,-0.0459,-0.0451,-0.0451,-0.0452,0,0,0,0,0,0,-0.058,-0.0576,-0.0544,-0.0556,-0.0552,-0.0531,-0.0524,-0.0521,-0.0515,-0.0495,-0.0492,-0.0504,-0.0477,-0.0474,-0.0467,-0.0471,-0.0459,-0.0458,-0.0451,-0.0451,-0.0452,-0.0473,0,0,0,0,0,0,-0.0581,-0.0577,-0.0577,-0.0556,-0.0551,-0.0539,-0.0525,-0.052,-0.0514,-0.0512,-0.0493,-0.0489,-0.0476,-0.0469,-0.0466,-0.047,-0.0458,-0.045,-0.0451,-0.0451,-0.0472,-0.0475,-0.0477,0,0,0,0,0,-0.0582,-0.0585,-0.0577,-0.0573,-0.0551,-0.0539,-0.0536,-0.0521,-0.0514,-0.0514,-0.0501,-0.049,-0.0471,-0.0468,-0.0465,-0.0469,-0.045,-0.0451,-0.0451,-0.0471,-0.0474,-0.0477,0,0,0,0,0,0,-0.0607,-0.0582,-0.0573,-0.0568,-0.0556,-0.0535,-0.0535,-0.0524,-0.0514,-0.0513,-0.0494,-0.049,-0.0485,-0.0476,-0.0474,-0.0469,-0.0459,-0.0459,-0.0475,-0.0478,-0.048,-0.0483,-0.0457,0,0,0,0,0,-0.0611,-0.0604,-0.0582,-0.0581,-0.0575,-0.0556,-0.055,-0.0539,-0.0526,-0.0521,-0.0508,-0.0496,-0.0487,-0.0481,-0.0472,-0.047,-0.0466,-0.0471,-0.0473,-0.0475,-0.0476,-0.0474,-0.0477,-0.0454,-0.0454,-0.0454,0,0,-0.0622,-0.0607,-0.0603,-0.0585,-0.0574,-0.0567,-0.0552,-0.0545,-0.054,-0.052,-0.0513,-0.0503,-0.0488,-0.0484,-0.0482,-0.0476,-0.0481,-0.0476,-0.0478,-0.0477,-0.0475,-0.0478,-0.048,-0.0455,-0.0455,-0.0455,0,0,-0.0636,-0.0624,-0.0621,-0.0611,-0.0594,-0.0581,-0.0581,-0.0561,-0.0553,-0.0546,-0.0531,-0.0524,-0.051,-0.05,-0.0493,-0.0503,-0.0493,-0.0501,-0.0512,-0.0511,-0.0513,-0.0514,-0.0519,-0.052,-0.0501,-0.0501,-0.0501,0,-0.0651,-0.064,-0.0622,-0.0616,-0.0608,-0.0589,-0.0586,-0.0576,-0.0558,-0.0554,-0.0547,-0.0528,-0.0517,-0.0511,-0.0513,-0.0508,-0.0507,-0.0503,-0.0514,-0.0515,-0.0516,-0.052,-0.0522,-0.0502,-0.0502,-0.0502,-0.0502,0,-0.0659,-0.0651,-0.0651,-0.0633,-0.0625,-0.0621,-0.0603,-0.0597,-0.0586,-0.0574,-0.0567,-0.0552,-0.054,-0.0537,-0.0527,-0.0529,-0.0527,-0.0517,-0.0508,-0.052,-0.0524,-0.0525,-0.0504,-0.0504,-0.0503,-0.0503,0,0,-0.069,-0.0661,-0.0661,-0.0653,-0.0633,-0.0627,-0.0621,-0.0608,-0.0604,-0.0592,-0.0588,-0.0575,-0.0566,-0.0558,-0.0547,-0.0545,-0.0555,-0.0536,-0.0536,-0.0541,-0.0557,-0.0565,-0.0567,-0.0547,-0.0547,-0.0548,-0.0559,0,-0.0703,-0.0692,-0.0675,-0.067,-0.0662,-0.0643,-0.0639,-0.0626,-0.0614,-0.0607,-0.0594,-0.0586,-0.0574,-0.0569,-0.0567,-0.0554,-0.0558,-0.0553,-0.0544,-0.0544,-0.0549,-0.0569,-0.0577,-0.0589,-0.056,-0.056,-0.056,0,-0.0716,-0.0704,-0.0698,-0.0678,-0.0675,-0.0671,-0.0658,-0.065,-0.0635,-0.0627,-0.0618,-0.0604,-0.0598,-0.0588,-0.058,-0.0577,-0.0572,-0.0564,-0.0564,-0.0564,-0.0554,-0.057,-0.0592,-0.0594,-0.0562,-0.0562,-0.0562,0,-0.074,-0.0723,-0.0717,-0.071,-0.0686,-0.0684,-0.0674,-0.0659,-0.0652,-0.0641,-0.0636,-0.0624,-0.0618,-0.0609,-0.0593,-0.0587,-0.0586,-0.0575,-0.058,-0.0581,-0.0582,-0.0582,-0.0605,-0.0577,-0.0577,-0.0577,-0.0577,0,-0.0757,-0.0755,-0.0728,-0.0724,-0.0721,-0.0701,-0.0698,-0.0686,-0.0673,-0.0667,-0.0649,-0.0644,-0.0623,-0.0615,-0.0603,-0.0598,-0.0595,-0.0589,-0.0585,-0.0591,-0.0592,-0.0588,-0.0588,-0.0577,-0.0577,-0.0577,-0.0577,0,-0.0784,-0.0766,-0.0759,-0.0736,-0.073,-0.0729,-0.071,-0.0706,-0.0693,-0.0686,-0.0683,-0.0663,-0.0653,-0.0635,-0.0621,-0.0612,-0.0611,-0.0605,-0.0616,-0.0614,-0.062,-0.0621,-0.0642,-0.0644,-0.0614,-0.0615,-0.0615,0,-0.0797,-0.0794,-0.0771,-0.0766,-0.0756,-0.0748,-0.0741,-0.0721,-0.0714,-0.0696,-0.0695,-0.0683,-0.0674,-0.0659,-0.0643,-0.0632,-0.0626,-0.0634,-0.0625,-0.063,-0.0628,-0.0629,-0.0629,-0.0637,-0.0638,-0.0638,-0.0638,0,-0.0822,-0.0812,-0.0802,-0.0789,-0.0781,-0.0769,-0.0757,-0.0754,-0.0731,-0.0724,-0.0714,-0.0706,-0.0691,-0.068,-0.0666,-0.0657,-0.0644,-0.0641,-0.0642,-0.0648,-0.0655,-0.0653,-0.0623,-0.0641,-0.0641,-0.0641,-0.0641,-0.0641,-0.0843,-0.0839,-0.0823,-0.0812,-0.08,-0.0789,-0.0784,-0.077,-0.0761,-0.0746,-0.0735,-0.0725,-0.071,-0.069,-0.0681,-0.0674,-0.0668,-0.0669,-0.0669,-0.067,-0.0673,-0.0655,-0.0671,-0.0671,-0.0671,-0.0671,-0.0671,0,-0.0867,-0.0855,-0.0845,-0.0828,-0.082,-0.0807,-0.0793,-0.0787,-0.0779,-0.0765,-0.0755,-0.0743,-0.0732,-0.0715,-0.0703,-0.0701,-0.0695,-0.0698,-0.0699,-0.0697,-0.0678,-0.0679,-0.0703,-0.0703,-0.0703,-0.0703,-0.0703,-0.0703,-0.0879,-0.0873,-0.0862,-0.085,-0.0838,-0.0828,-0.0821,-0.081,-0.0799,-0.0787,-0.0777,-0.0766,-0.0751,-0.0737,-0.0727,-0.0722,-0.0719,-0.0725,-0.0719,-0.0701,-0.0699,-0.0696,-0.0697,-0.0724,-0.0724,-0.0738,-0.0738,-0.0738]},{"header":{"parameterUnit":"m.s-1","parameterCategory":1,"la1":30.2991,"la2":30.254,"lo1":-89.0895,"lo2":-89.0444,"dx":0.0017,"dy":0.0017,"nx":28,"ny":28,"refTime":"2022-12-12T03:00:00:Z","depth":0,"parameterNumber":3,"parameterNumberName":"V-component_of_WINDS"},"data":[0,0,0,0,0,0,0,0,0,0,0,0,0,0,0,0,0,0,0,0,0,0,0,0,0,0,0,0,0,0,0,0,0,0,0,0,0,0,0,0,0,0,0,0,0,0,0,0,0,0,0,0,0,0,0,0,0,0,-1.2591,-1.2591,0,-1.2624,-1.2624,-1.2624,-1.2637,-1.2637,-1.2637,-1.2637,-1.2671,-1.2672,-1.2673,0,0,0,0,0,0,0,0,0,0,0,0,0,-1.2541,-1.2542,-1.2591,-1.2591,-1.2592,-1.2624,-1.2624,-1.2625,-1.2637,-1.2637,-1.2637,-1.2637,-1.2671,-1.2672,-1.2673,0,0,0,0,0,0,0,0,0,0,0,0,0,-1.2567,-1.2542,-1.2591,-1.2602,-1.2603,-1.2624,-1.2624,-1.2625,-1.2637,-1.2637,-1.2637,-1.2637,-1.2671,-1.2672,-1.2674,-1.2686,0,0,-1.2678,-1.2679,0,0,0,0,0,0,0,0,-1.2566,-1.2569,-1.26,-1.2601,-1.2602,-1.2626,-1.2619,-1.2645,-1.2637,-1.2624,-1.2637,-1.2637,-1.2656,-1.2659,-1.2666,-1.2688,-1.2689,-1.2678,-1.2679,-1.268,-1.268,0,0,0,0,0,0,0,-1.2564,-1.2568,-1.2604,-1.26,-1.2602,-1.2606,-1.2609,-1.2624,-1.2641,-1.2625,-1.2626,-1.263,-1.2657,-1.2664,-1.2667,-1.269,-1.2678,-1.268,-1.2681,-1.2681,-1.2727,-1.2727,0,0,0,0,0,0,-1.256,-1.2566,-1.2603,-1.2605,-1.2583,-1.2607,-1.2611,-1.2619,-1.2641,-1.2644,-1.263,-1.263,-1.2662,-1.2665,-1.2668,-1.2686,-1.268,-1.2681,-1.2682,-1.2726,-1.2727,-1.2727,0,0,0,0,0,0,-1.2559,-1.2563,-1.2601,-1.2586,-1.2591,-1.2608,-1.2617,-1.2619,-1.2626,-1.2644,-1.2647,-1.2634,-1.2662,-1.2666,-1.2682,-1.2687,-1.2682,-1.2683,-1.2726,-1.2727,-1.2727,-1.272,0,0,0,0,0,0,-1.2557,-1.2563,-1.2567,-1.2586,-1.2592,-1.2614,-1.2617,-1.262,-1.2629,-1.263,-1.2649,-1.2652,-1.2662,-1.268,-1.2684,-1.2689,-1.2685,-1.2726,-1.2726,-1.2727,-1.272,-1.2721,-1.2721,0,0,0,0,0,-1.2556,-1.2563,-1.2567,-1.2571,-1.2597,-1.2614,-1.2618,-1.2629,-1.2629,-1.2634,-1.2646,-1.2651,-1.2686,-1.2681,-1.2686,-1.2692,-1.2725,-1.2726,-1.2727,-1.272,-1.272,-1.2721,0,0,0,0,0,0,-1.2544,-1.2566,-1.257,-1.2584,-1.2597,-1.2616,-1.2623,-1.2629,-1.2642,-1.2642,-1.2656,-1.266,-1.2676,-1.2686,-1.268,-1.2707,-1.2706,-1.2708,-1.27,-1.27,-1.27,-1.2698,-1.2686,0,0,0,0,0,-1.2543,-1.2554,-1.2573,-1.2583,-1.259,-1.2605,-1.2613,-1.2621,-1.2635,-1.2641,-1.2654,-1.2668,-1.2683,-1.2692,-1.2706,-1.2722,-1.2727,-1.2729,-1.2729,-1.2729,-1.273,-1.2742,-1.2743,-1.2729,-1.2729,-1.2729,0,0,-1.254,-1.2554,-1.256,-1.2581,-1.2593,-1.2606,-1.261,-1.2622,-1.2633,-1.2643,-1.266,-1.267,-1.2687,-1.2704,-1.2712,-1.2712,-1.2736,-1.273,-1.273,-1.2731,-1.2743,-1.2744,-1.2745,-1.273,-1.273,-1.273,0,0,-1.2543,-1.2554,-1.2565,-1.2577,-1.2594,-1.2605,-1.2607,-1.2626,-1.2634,-1.2651,-1.266,-1.2673,-1.2696,-1.2709,-1.2719,-1.273,-1.2736,-1.2734,-1.2736,-1.2747,-1.2748,-1.2749,-1.2755,-1.2756,-1.2735,-1.2735,-1.2735,0,-1.2539,-1.2558,-1.257,-1.2583,-1.2593,-1.2604,-1.2616,-1.2627,-1.2648,-1.2655,-1.2655,-1.2687,-1.2699,-1.2721,-1.2724,-1.273,-1.2735,-1.2732,-1.2747,-1.2748,-1.2749,-1.2755,-1.2757,-1.2735,-1.2735,-1.2735,-1.2735,0,-1.2552,-1.2565,-1.2572,-1.2593,-1.2604,-1.2616,-1.2632,-1.2641,-1.2649,-1.266,-1.2679,-1.2694,-1.2713,-1.2718,-1.2725,-1.2741,-1.2741,-1.2744,-1.2744,-1.275,-1.2756,-1.2758,-1.2735,-1.2735,-1.2735,-1.2735,0,0,-1.2546,-1.2576,-1.2578,-1.2589,-1.261,-1.2621,-1.2635,-1.2654,-1.2663,-1.2678,-1.2691,-1.2713,-1.2716,-1.2727,-1.2736,-1.2746,-1.2756,-1.2748,-1.2748,-1.275,-1.2778,-1.2776,-1.2778,-1.2761,-1.2761,-1.2761,-1.2777,0,-1.2553,-1.2578,-1.2591,-1.2611,-1.2625,-1.2637,-1.2649,-1.2665,-1.2676,-1.269,-1.2703,-1.2719,-1.2721,-1.2728,-1.2739,-1.2753,-1.2762,-1.2752,-1.2775,-1.2775,-1.2771,-1.2781,-1.2779,-1.2792,-1.2779,-1.2779,-1.278,0,-1.2563,-1.2579,-1.2601,-1.2623,-1.2629,-1.264,-1.266,-1.2673,-1.2691,-1.2699,-1.2713,-1.2722,-1.274,-1.2739,-1.2764,-1.2757,-1.2767,-1.2776,-1.2777,-1.278,-1.2778,-1.2785,-1.2797,-1.2799,-1.2783,-1.2783,-1.2782,0,-1.2559,-1.2585,-1.2602,-1.2611,-1.2637,-1.2645,-1.2656,-1.2675,-1.2686,-1.2704,-1.2712,-1.2731,-1.2741,-1.2757,-1.2772,-1.277,-1.2797,-1.2796,-1.2805,-1.2805,-1.281,-1.281,-1.2824,-1.2815,-1.2815,-1.2815,-1.2815,0,-1.2565,-1.2578,-1.2601,-1.2611,-1.2628,-1.2643,-1.2659,-1.2671,-1.2688,-1.2703,-1.2714,-1.2728,-1.2747,-1.2763,-1.2775,-1.2796,-1.28,-1.2808,-1.2811,-1.2807,-1.2807,-1.2815,-1.2814,-1.2816,-1.2816,-1.2816,-1.2815,0,-1.2562,-1.2578,-1.2598,-1.2621,-1.2628,-1.2639,-1.266,-1.2672,-1.2685,-1.2703,-1.2708,-1.2729,-1.2749,-1.2766,-1.2792,-1.2801,-1.2822,-1.2826,-1.2816,-1.2818,-1.2826,-1.2826,-1.2847,-1.2852,-1.2839,-1.2839,-1.2839,0,-1.2565,-1.2575,-1.2601,-1.2612,-1.2623,-1.264,-1.2652,-1.2669,-1.2681,-1.2705,-1.2714,-1.2736,-1.2753,-1.2786,-1.2804,-1.2825,-1.2829,-1.2836,-1.2832,-1.2829,-1.2831,-1.2831,-1.2833,-1.2836,-1.2836,-1.2836,-1.2836,0,-1.2569,-1.2577,-1.2594,-1.2614,-1.2629,-1.2645,-1.2662,-1.2671,-1.2691,-1.2705,-1.2726,-1.274,-1.2768,-1.279,-1.2813,-1.2827,-1.2836,-1.2837,-1.284,-1.2837,-1.2831,-1.2836,-1.2818,-1.2836,-1.2836,-1.2836,-1.2836,-1.2836,-1.257,-1.2581,-1.2602,-1.2621,-1.2636,-1.2652,-1.2665,-1.2681,-1.2699,-1.2723,-1.2732,-1.2754,-1.2776,-1.2809,-1.2822,-1.2841,-1.2842,-1.2846,-1.2848,-1.2849,-1.2849,-1.2828,-1.2845,-1.2845,-1.2845,-1.2845,-1.2845,0,-1.2576,-1.259,-1.2608,-1.2632,-1.2648,-1.2655,-1.2676,-1.2689,-1.2708,-1.2727,-1.2745,-1.2771,-1.2793,-1.2814,-1.2838,-1.2849,-1.2854,-1.2855,-1.2854,-1.2858,-1.2846,-1.2842,-1.2851,-1.2851,-1.2851,-1.2851,-1.2851,-1.2851,-1.2581,-1.26,-1.2612,-1.264,-1.2655,-1.2677,-1.2688,-1.2704,-1.272,-1.2748,-1.2767,-1.2781,-1.2802,-1.2827,-1.2849,-1.2854,-1.2863,-1.2863,-1.287,-1.2859,-1.2858,-1.2858,-1.2853,-1.2865,-1.2865,-1.2881,-1.2881,-1.2881]}]]